Weather History for Milledgeville, GA

Change the Weather History Date:

Sunday, November 11, 2012

  Actual Average (KOKZ) Record (KOKZ)
Temperature  
Mean Temperature 58 °F -  
Max Temperature 75 °F 68 °F 75 °F (2014)
Min Temperature 42 °F 43 °F 36 °F (2014)
Degree Days  
Heating Degree Days 6    
Growing Degree Days 8 (Base 50)    
Moisture  
Dew Point 50 °F    
Average Humidity 81    
Maximum Humidity 100    
Minimum Humidity 41    
Precipitation  
Precipitation 0.00 in - - ()
Sea Level Pressure  
Sea Level Pressure 30.36 in    
Wind  
Wind Speed 0 mph (East)    
Max Wind Speed 4 mph    
Max Gust Speed -    
Visibility 10 miles    
Events      
Averages and records for this station are not official NWS values.
T = Trace of Precipitation, MM = Missing Value Source: NWS Daily Summary

Daily Weather History Graph

Daily Weather History Graph

Search for Another Location

Airport:

Trip Planner

Search our weather history database for the weather conditions in past years. The results will help you decide how hot, cold, wet, or windy it might be!

Date:

Astronomy

Nov. 11, 2012 Rise Set
Actual Time 7:00 AM EST 5:33 PM EST
Civil Twilight 6:34 AM EST 5:59 PM EST
Nautical Twilight 6:04 AM EST 6:28 PM EST
Astronomical Twilight 5:35 AM EST 6:58 PM EST
Moon 4:19 AM EST (11/11) 3:51 PM EST (11/11)
Length of Visible Light 11h 24m
Length of Day
10h 32m
Waning Crescent, 7% of the Moon is Illuminated
Nov 11
Waning Crescent
Nov 13
New
Nov 20
First Quarter
Nov 28
Full
Dec 6
Last Quarter

Hourly Weather History & Observations

Time (EST) Temp. Dew Point Humidity Pressure Visibility Wind Dir Wind Speed Gust Speed Precip Events Conditions
12:15 AM 46.4 °F 46.4 °F 100% 30.36 in 7.0 mi Calm Calm - N/A   Clear
12:35 AM 44.6 °F 44.6 °F 100% 30.35 in 7.0 mi Calm Calm - N/A   Clear
12:55 AM 44.6 °F 44.6 °F 100% 30.35 in 7.0 mi Calm Calm - N/A   Clear
1:15 AM 44.6 °F 44.6 °F 100% 30.36 in 10.0 mi Calm Calm - N/A   Clear
1:35 AM 44.6 °F 44.6 °F 100% 30.36 in 10.0 mi Calm Calm - N/A   Clear
1:55 AM 44.6 °F 44.6 °F 100% 30.35 in 10.0 mi Calm Calm - N/A   Clear
2:15 AM 44.6 °F 44.6 °F 100% 30.35 in 10.0 mi Calm Calm - N/A   Clear
2:35 AM 42.8 °F 42.8 °F 100% 30.35 in 10.0 mi Calm Calm - N/A   Clear
2:55 AM 42.8 °F 42.8 °F 100% 30.35 in 10.0 mi Calm Calm - N/A   Clear
3:15 AM 42.8 °F 42.8 °F 100% 30.35 in 10.0 mi Calm Calm - N/A   Clear
3:35 AM 42.8 °F 42.8 °F 100% 30.35 in 10.0 mi Calm Calm - N/A   Clear
3:55 AM 42.8 °F 42.8 °F 100% 30.35 in 10.0 mi Calm Calm - N/A   Clear
4:15 AM 42.8 °F 42.8 °F 100% 30.35 in 10.0 mi Calm Calm - N/A   Clear
4:35 AM 42.8 °F 42.8 °F 100% 30.36 in 10.0 mi Calm Calm - N/A   Clear
4:55 AM 42.8 °F 42.8 °F 100% 30.36 in 10.0 mi Calm Calm - N/A   Clear
5:15 AM 42.8 °F 42.8 °F 100% 30.36 in 7.0 mi Calm Calm - N/A   Scattered Clouds
5:35 AM 42.8 °F 42.8 °F 100% 30.36 in 10.0 mi Calm Calm - N/A   Scattered Clouds
5:55 AM 42.8 °F 42.8 °F 100% 30.37 in 10.0 mi Calm Calm - N/A   Clear
6:15 AM 42.8 °F 42.8 °F 100% 30.37 in 7.0 mi Calm Calm - N/A   Clear
6:35 AM 42.8 °F 42.8 °F 100% 30.38 in 10.0 mi Calm Calm - N/A   Clear
7:15 AM 44.6 °F 44.6 °F 100% 30.39 in 5.0 mi Calm Calm - N/A   Clear
7:55 AM 44.6 °F 44.6 °F 100% 30.41 in 5.0 mi Calm Calm - N/A   Scattered Clouds
8:15 AM 46.4 °F 46.4 °F 100% 30.42 in 5.0 mi Calm Calm - N/A   Mostly Cloudy
8:55 AM 51.8 °F 51.8 °F 100% 30.43 in 10.0 mi Calm Calm - N/A   Overcast
9:15 AM 51.8 °F 51.8 °F 100% 30.43 in 10.0 mi Calm Calm - N/A   Overcast
10:55 AM 60.8 °F 51.8 °F 72% 30.44 in 10.0 mi Calm Calm - N/A   Overcast
11:15 AM 60.8 °F 51.8 °F 72% 30.43 in 10.0 mi Calm Calm - N/A   Overcast
11:35 AM 62.6 °F 50.0 °F 63% 30.43 in 10.0 mi Calm Calm - N/A   Overcast
11:55 AM 64.4 °F 51.8 °F 64% 30.42 in 10.0 mi Calm Calm - N/A   Overcast
12:15 PM 68.0 °F 51.8 °F 56% 30.41 in 10.0 mi Calm Calm - N/A   Overcast
12:35 PM 68.0 °F 51.8 °F 56% 30.40 in 10.0 mi Calm Calm - N/A   Mostly Cloudy
12:55 PM 71.6 °F 51.8 °F 50% 30.38 in 10.0 mi Calm Calm - N/A   Scattered Clouds
1:15 PM 71.6 °F 51.8 °F 50% 30.37 in 10.0 mi Calm Calm - N/A   Scattered Clouds
1:35 PM 73.4 °F 51.8 °F 47% 30.35 in 10.0 mi East 3.5 mph - N/A   Clear
1:55 PM 75.2 °F 51.8 °F 44% 30.34 in 10.0 mi Calm Calm - N/A   Clear
2:15 PM 75.2 °F 50.0 °F 41% 30.33 in 10.0 mi Calm Calm - N/A   Scattered Clouds
2:55 PM 75.2 °F 51.8 °F 44% 30.33 in 10.0 mi Calm Calm - N/A   Mostly Cloudy
3:35 PM 73.4 °F 53.6 °F 50% 30.33 in 10.0 mi Calm Calm - N/A   Overcast
3:55 PM 73.4 °F 51.8 °F 47% 30.32 in 10.0 mi ESE 3.5 mph - N/A   Mostly Cloudy
4:15 PM 73.4 °F 51.8 °F 47% 30.32 in 10.0 mi Calm Calm - N/A   Mostly Cloudy
4:55 PM 73.4 °F 53.6 °F 50% 30.32 in 10.0 mi Calm Calm - N/A   Mostly Cloudy
5:15 PM 71.6 °F 53.6 °F 53% 30.32 in 10.0 mi Calm Calm - N/A   Mostly Cloudy
5:35 PM 71.6 °F 53.6 °F 53% 30.32 in 10.0 mi Calm Calm - N/A   Mostly Cloudy
5:55 PM 69.8 °F 55.4 °F 60% 30.32 in 10.0 mi Calm Calm - N/A   Scattered Clouds
6:15 PM 66.2 °F 55.4 °F 68% 30.32 in 10.0 mi Calm Calm - N/A   Clear
6:55 PM 60.8 °F 55.4 °F 82% 30.33 in 10.0 mi Calm Calm - N/A   Clear
7:15 PM 60.8 °F 55.4 °F 82% 30.33 in 10.0 mi Calm Calm - N/A   Clear
7:35 PM 60.8 °F 55.4 °F 82% 30.34 in 10.0 mi Calm Calm - N/A   Clear
7:55 PM 59.0 °F 55.4 °F 88% 30.32 in 10.0 mi Calm Calm - N/A   Clear
8:15 PM 60.8 °F 57.2 °F 88% 30.33 in 10.0 mi Calm Calm - N/A   Clear
8:35 PM 64.4 °F 55.4 °F 73% 30.32 in 10.0 mi Calm Calm - N/A   Clear
8:55 PM 64.4 °F 55.4 °F 73% 30.33 in 10.0 mi Calm Calm - N/A   Clear
9:15 PM 64.4 °F 57.2 °F 77% 30.33 in 10.0 mi Calm Calm - N/A   Clear
9:35 PM 64.4 °F 57.2 °F 77% 30.34 in 10.0 mi Calm Calm - N/A   Clear
9:55 PM 62.6 °F 59.0 °F 88% 30.34 in 10.0 mi Calm Calm - N/A   Clear
10:15 PM 64.4 °F 59.0 °F 83% 30.33 in 10.0 mi Calm Calm - N/A   Clear
10:35 PM 62.6 °F 59.0 °F 88% 30.33 in 10.0 mi Calm Calm - N/A   Clear
10:55 PM 62.6 °F 59.0 °F 88% 30.33 in 10.0 mi Calm Calm - N/A   Clear
11:15 PM 62.6 °F 59.0 °F 88% 30.33 in 10.0 mi Calm Calm - N/A   Clear
11:35 PM 62.6 °F 59.0 °F 88% 30.33 in 10.0 mi Calm Calm - N/A   Clear